Temp
14 14 14 14 14 14 14 14 15 15 15 15 16 16 17 18 21 21 22 23 23 24 25 25 26 27 28 26 27 28 24 23 26 30 29 30 30 29 31 32 31 29 27 26 24
15 15 15 15 15 15 15 15 14 15 15 15 15 16 17 18 19 19 21 22 23 23 24 24 23 25 23 25 25 24 22 25 27 28 27 27 28 27 30 30 29 24 24 24 24
15 15 15 15 15 15 15 15 14 14 14 15 15 16 17 18 18 21 23 23 23 23 23 23 24 25 25 24 25 26 24 26 28 28 26 26 28 29 28 30 31 24 23 24 24
15 15 15 15 15 15 15 15 14 14 14 15 15 15 17 18 20 22 22 22 23 23 23 24 24 23 23 23 24 25 26 26 26 27 26 25 28 28 28 29 30 27 24 24 23
14 15 15 15 15 15 15 15 14 14 14 14 14 14 16 17 19 22 22 22 22 23 23 23 23 23 23 23 23 24 25 26 26 26 27 27 27 27 27 27 28 29 25 24 23
14 14 14 14 14 14 14 14 14 14 14 13 13 13 14 14 20 21 22 22 22 22 23 24 23 23 23 24 23 24 24 24 25 25 27 27 26 27 27 28 28 28 24 24 24
14 14 14 14 14 14 14 14 13 13 13 13 13 13 13 15 20 22 22 21 21 22 22 23 23 21 22 22 24 24 23 24 25 25 26 27 25 26 27 27 26 27 25 24 24
14 14 14 14 14 14 14 13 13 13 13 13 13 12 13 17 19 18 19 20 21 22 22 22 22 21 21 22 22 22 22 22 25 26 26 25 25 26 26 26 26 26 27 25 25
14 14 14 14 14 14 13 13 13 13 13 12 13 12 13 19 17 20 19 19 20 22 22 22 22 20 21 20 18 20 19 22 23 26 27 26 26 27 28 28 27 27 28 25 25
14 14 14 14 13 13 12 12 12 12 12 12 12 13 15 19 21 21 21 21 21 21 21 21 20 19 18 18 18 20 21 21 22 24 26 25 24 26 27 27 27 26 25 24 23
14 14 14 13 13 12 12 12 11 11 11 14 15 16 21 21 22 22 22 22 22 21 18 19 17 17 18 20 21 21 22 22 23 25 25 24 25 25 26 26 25 25 25 24 24
13 14 14 13 13 12 12 11 14 13 14 14 17 17 18 20 20 22 22 20 20 18 20 19 17 20 22 22 23 23 22 22 23 25 25 24 24 24 25 25 26 25 26 24 24
13 13 13 13 12 12 12 12 13 14 12 17 16 17 18 20 19 20 21 21 20 19 20 19 21 23 23 22 23 22 22 22 22 23 23 22 23 24 25 25 26 24 24 25 24
13 12 12 12 12 10 11 11 12 13 12 15 18 19 20 20 19 21 22 21 20 20 20 20 22 23 23 23 24 21 24 24 24 23 19 22 20 24 24 25 23 22 20 20 20
12 12 12 12 11 11 12 11 12 12 14 19 19 22 21 20 21 21 22 21 19 20 20 20 22 22 22 23 24 22 23 22 23 20 19 21 21 22 24 25 22 21 20 19 19
13 12 12 12 11 11 11 11 11 11 12 18 19 19 20 20 21 20 20 21 21 20 20 20 22 22 22 23 23 22 22 21 21 20 16 20 21 19 22 22 21 20 20 19 19
12 12 12 11 11 11 10 11 10 12 18 19 18 19 19 19 19 19 18 17 17 17 17 19 20 21 22 21 22 21 20 17 16 16 16 22 21 21 22 21 21 20 19 19 18
12 11 11 10 11 11 10 10 12 14 18 21 20 19 18 19 18 19 18 16 17 18 18 17 18 20 22 21 20 20 19 16 17 16 18 20 19 19 21 21 20 20 19 19 18
11 9 9 10 11 10 11 12 13 17 18 19 20 18 18 19 19 18 18 18 18 18 17 18 19 22 22 22 22 20 19 20 18 16 12 16 19 20 20 19 20 20 20 18 16
9 8 7 9 9 10 11 11 13 18 21 21 19 20 18 19 20 18 18 19 19 20 19 19 18 21 21 21 22 21 20 17 15 14 15 17 19 17 18 18 19 18 17 18 17
8 8 5 7 9 10 10 10 14 18 20 19 18 18 20 19 20 19 19 20 20 19 19 19 17 19 19 19 19 19 18 18 17 14 13 15 16 17 17 19 19 18 19 18 17
6 6 4 6 10 5 8 13 15 17 17 18 18 19 19 19 20 18 19 19 19 18 17 18 16 15 18 20 19 19 19 17 12 15 12 12 13 18 17 19 21 20 20 19 18
3 4 4 6 8 7 9 12 14 15 16 16 17 18 19 18 17 19 16 16 17 16 15 16 13 11 15 17 19 18 18 17 16 15 13 13 13 19 18 18 19 19 19 17 19
4 6 3 4 4 8 7 9 10 13 14 16 16 17 17 17 18 17 15 16 16 14 14 15 14 13 11 13 15 15 15 16 15 11 11 13 14 15 16 16 16 17 18 17 17
5 5 6 6 5 7 9 9 10 11 12 14 15 15 15 15 16 14 15 14 14 13 14 12 10 11 12 13 13 13 13 14 14 14 12 14 14 16 16 15 15 16 16 17 17
5 6 7 6 6 6 8 8 10 13 12 13 13 14 14 14 14 13 13 12 13 13 13 13 8 8 9 12 12 12 13 13 14 14 14 14 14 16 16 17 16 17 17 16 17
8 9 8 7 6 6 7 8 8 8 8 12 12 13 13 10 11 11 11 12 12 12 12 11 9 9 9 12 11 9 12 13 14 14 14 12 14 15 15 16 16 16 17 15 13
Height
809 812 815 816 817 819 820 822 821 820 819 818 815 812 809 805 799 795 794 793 792 790 789 786 782 779 777 776 774 772 805 812 796 781 779 758 762 748 738 743 743 747 752 753 765
805 807 811 814 814 817 818 819 820 820 818 817 815 812 808 805 799 793 792 791 792 791 789 788 787 782 785 780 778 787 807 798 775 772 776 767 766 763 755 753 756 763 759 759 765
800 803 806 809 812 813 815 817 818 818 817 816 815 812 808 806 802 793 791 792 792 791 791 789 786 784 786 781 778 778 794 778 770 767 769 769 763 756 762 761 750 761 760 759 760
796 799 802 804 808 810 812 813 815 816 816 815 814 811 808 806 813 792 792 791 791 791 791 788 786 789 793 794 778 788 775 772 770 764 768 771 759 761 758 755 744 749 751 754 758
792 795 798 802 803 807 809 811 812 813 814 814 813 812 808 809 799 793 792 791 790 790 790 789 790 790 795 789 784 783 776 769 765 764 763 760 764 762 757 746 742 741 751 755 758
789 791 795 798 801 804 807 809 811 811 811 812 812 812 812 813 789 790 791 791 790 790 789 789 789 786 788 786 790 779 775 772 766 766 760 765 762 759 752 745 744 740 748 750 750
784 787 791 795 797 802 804 806 810 811 809 811 811 812 811 799 786 786 786 787 788 789 789 789 790 792 790 790 780 780 784 773 768 765 763 758 765 762 747 744 746 744 744 746 747
777 783 785 790 796 798 801 803 807 809 811 810 810 811 803 785 782 780 782 783 784 785 787 789 791 792 791 786 786 792 787 792 765 760 755 764 769 751 739 741 742 740 737 740 742
770 776 780 787 792 795 798 802 805 806 809 809 810 809 798 781 777 772 777 779 781 781 783 785 787 792 792 801 808 796 809 792 776 753 753 758 759 741 729 733 737 735 731 735 735
764 769 776 783 788 793 796 800 801 804 807 808 808 812 789 779 770 770 771 774 776 777 780 784 789 798 800 807 815 800 799 790 786 764 753 760 761 744 732 733 734 734 731 730 733
758 763 770 778 784 789 794 800 805 806 803 795 788 784 772 771 769 771 769 771 771 777 791 785 801 808 799 790 786 787 788 786 773 758 760 762 757 749 736 734 736 733 732 729 724
751 759 765 772 779 786 789 790 791 792 793 785 777 778 777 773 777 767 767 776 775 786 781 789 799 784 778 778 779 779 783 781 767 757 759 760 755 748 740 737 733 731 725 727 724
746 753 760 768 775 781 781 786 789 790 796 772 771 769 773 771 774 768 765 769 774 780 778 785 773 766 772 773 777 777 781 777 776 765 764 766 760 753 740 734 734 733 721 722 720
738 746 754 764 775 772 777 784 786 790 795 772 764 751 755 765 763 761 760 767 770 776 774 772 761 763 765 767 767 782 764 763 769 776 798 775 788 760 750 745 748 748 746 744 738
731 738 746 755 756 765 774 780 782 790 788 747 745 737 741 752 751 749 753 762 769 769 769 770 761 764 766 763 758 771 762 769 768 782 787 784 789 764 749 752 752 753 751 750 744
723 731 739 748 757 761 767 774 782 796 787 742 735 738 747 747 750 755 755 753 755 768 764 764 751 756 756 752 756 759 768 772 773 782 807 780 779 780 759 755 755 753 751 749 748
717 723 732 739 745 756 766 771 785 774 744 735 739 738 746 750 756 762 765 767 772 782 778 764 760 750 751 763 757 762 777 806 811 810 805 765 770 765 755 753 753 754 755 752 751
710 720 725 730 740 750 760 764 762 744 727 719 727 738 749 748 756 759 765 770 761 763 767 775 773 752 740 751 763 765 775 800 803 810 791 767 780 771 749 747 748 750 755 756 757
706 716 722 724 732 742 752 750 736 725 723 723 724 740 748 746 748 756 756 757 752 758 772 765 758 735 733 735 748 762 776 770 784 794 819 789 772 762 752 754 754 752 754 757 758
703 711 718 719 725 735 739 741 727 712 707 709 726 722 737 739 743 750 749 740 747 744 747 751 765 740 741 739 743 752 755 786 798 809 808 781 773 775 770 766 761 764 767 762 759
702 708 716 716 725 733 729 736 723 708 705 714 721 726 723 729 733 739 738 732 734 744 744 748 759 755 748 756 761 763 770 769 776 790 805 798 787 771 770 764 764 765 763 763 761
695 710 713 713 725 738 736 717 714 710 710 712 716 715 717 721 724 736 735 731 729 738 753 750 762 771 759 747 750 755 760 769 800 790 799 804 796 760 765 761 760 764 760 758 757
701 713 712 713 715 724 729 714 717 720 715 717 717 713 713 721 732 727 736 740 736 746 755 753 772 792 775 763 756 764 762 769 773 784 793 798 792 758 757 760 759 759 757 758 755
697 701 717 719 724 716 729 732 728 728 723 715 716 716 721 724 720 727 741 740 744 754 753 752 762 774 790 783 777 778 777 774 780 804 800 794 785 766 769 769 763 761 759 758 755
696 707 706 719 723 720 722 728 732 733 729 718 718 721 726 730 729 740 740 746 753 757 755 762 785 780 776 779 779 781 779 777 783 783 795 782 780 761 761 764 761 757 754 752 749
699 696 705 716 726 732 728 732 731 725 730 725 727 726 727 733 737 741 747 753 756 760 761 762 795 796 794 778 781 783 775 779 778 777 776 776 770 760 755 751 751 750 749 746 745
692 694 693 717 727 734 735 733 735 744 745 735 735 733 734 751 747 747 749 753 756 760 765 770 783 791 795 779 788 799 777 774 771 769 772 778 765 757 755 749 746 743 740 745 751
Wind_Speed
20 18 17 15 13 12 11 11 11 11 14 17 19 22 24 27 30 25 8 1 3 8 11 18 18 22 14 4 5 1 2 3 5 1 8 8 9 10 8 3 6 4 4 12 32
23 21 19 18 16 14 12 12 12 12 13 15 18 22 24 26 29 14 3 0 3 9 11 14 10 16 5 5 4 4 4 6 7 5 5 8 8 8 7 8 6 11 14 31 29
25 23 21 20 18 16 14 13 12 11 13 15 17 20 23 23 7 1 3 3 6 10 13 13 18 8 5 5 5 5 7 7 13 5 8 9 8 6 7 6 6 12 19 19 26
27 25 23 21 20 18 15 13 12 11 12 14 16 19 21 9 5 3 7 8 13 14 12 14 7 7 5 6 8 5 8 6 6 7 7 9 7 7 7 7 8 9 20 20 18
30 28 25 23 21 19 17 15 13 11 12 13 14 16 11 3 9 15 16 8 12 9 10 7 7 5 6 8 10 6 5 9 12 11 11 12 12 8 9 12 10 7 19 17 14
31 29 26 24 22 19 17 15 14 12 11 12 13 15 3 6 13 10 9 9 9 13 11 11 5 8 7 6 5 8 12 12 10 11 9 13 8 5 8 9 12 12 16 17 18
32 30 28 25 22 21 17 15 14 12 10 11 11 11 5 15 13 12 15 19 15 11 7 14 14 7 10 9 6 12 14 17 15 9 12 11 13 15 12 11 11 11 11 16 17
34 32 28 26 24 20 17 14 13 11 13 12 11 6 7 23 24 25 22 23 19 19 20 16 16 7 3 6 7 7 6 6 3 10 10 8 19 10 12 11 14 14 12 17 17
34 33 29 27 24 20 17 14 13 12 12 9 6 2 9 16 8 16 21 17 16 17 17 16 10 5 4 4 5 5 5 9 10 7 10 7 13 9 8 8 9 8 14 9 18
35 33 30 28 24 20 16 15 13 10 8 4 7 3 8 7 13 7 10 17 10 9 9 6 2 4 1 4 5 5 6 8 8 9 14 9 9 8 8 7 6 8 8 10 13
37 34 30 28 25 23 21 8 4 2 6 9 10 6 7 10 2 6 10 8 7 5 5 8 4 6 14 12 12 11 14 16 15 10 12 10 12 9 8 5 9 9 8 8 10
38 35 31 31 28 26 25 5 4 3 7 25 25 21 25 21 10 8 18 7 6 7 7 2 8 14 15 15 14 13 14 14 6 10 13 15 19 8 8 9 7 11 13 11 8
40 36 34 33 29 29 27 13 9 4 4 7 16 13 18 19 18 15 8 9 6 10 11 11 9 16 15 13 12 10 8 6 8 12 7 9 12 7 8 11 11 16 9 6 8
43 41 36 33 28 21 10 19 13 11 3 6 10 13 21 12 14 30 22 8 8 9 8 8 10 15 13 12 6 6 7 10 11 9 5 7 9 3 9 7 16 16 16 15 19
44 43 41 43 13 15 15 24 20 6 4 5 7 7 10 15 1 14 25 15 17 13 6 6 4 8 9 7 4 6 5 5 5 4 7 3 5 3 7 4 14 14 14 13 15
48 44 45 34 23 17 28 30 12 5 8 5 6 4 5 22 5 3 3 2 7 10 10 9 8 4 4 1 4 4 4 6 5 0 6 11 10 6 3 9 12 12 13 13 13
48 50 50 34 16 27 41 13 3 6 5 8 5 9 12 12 15 7 7 5 6 6 11 13 18 16 9 7 5 5 4 2 2 1 7 2 6 7 10 13 14 12 9 8 8
50 50 42 33 32 41 22 3 6 10 13 9 11 14 12 9 13 15 9 7 12 6 1 7 4 17 14 20 8 9 7 4 5 4 4 5 5 3 10 11 10 10 8 9 10
52 38 22 25 40 47 9 10 11 7 11 8 15 15 14 16 9 14 13 8 8 14 6 5 5 3 5 8 15 7 8 8 3 3 3 4 3 3 4 7 6 7 8 7 8
32 12 8 20 45 31 12 11 6 9 10 13 13 9 14 17 15 15 11 9 13 6 12 2 1 1 3 6 3 2 6 1 3 4 5 4 6 4 6 6 6 9 9 7 5
15 5 0 14 26 6 9 8 7 11 10 5 17 8 12 12 16 9 7 7 13 5 2 3 3 3 6 3 5 2 4 3 4 5 4 1 3 6 7 6 4 3 0 5 5
5 3 7 9 10 3 4 9 6 12 5 1 2 20 9 11 10 14 12 1 6 8 5 0 2 4 5 6 7 3 1 6 4 4 3 4 5 11 9 6 1 5 3 3 6
3 3 8 1 8 4 2 5 1 6 6 4 4 2 2 2 5 15 5 2 8 5 4 2 2 2 6 2 3 2 2 5 5 4 7 2 6 6 11 5 5 4 3 4 2
4 3 3 3 2 4 6 2 5 3 7 3 2 2 1 1 3 4 6 4 3 3 5 3 2 4 6 4 1 1 6 4 4 1 2 4 9 18 8 9 8 4 2 6 6
2 3 4 3 2 3 6 3 5 5 7 5 1 2 1 1 3 8 13 6 7 3 3 4 3 3 3 6 6 5 10 8 7 7 5 11 8 22 13 7 7 8 7 7 8
3 3 3 3 9 5 4 6 12 7 2 3 1 2 3 3 3 4 9 3 4 3 3 2 2 3 4 3 3 10 16 9 11 12 14 13 18 10 13 15 15 13 10 9 2
3 8 5 8 5 4 3 4 7 6 4 2 9 1 5 6 10 7 8 6 4 4 2 5 4 3 2 4 3 8 11 15 13 14 10 10 14 13 12 14 13 14 12 6 10
Wind_Direction
231 235 240 244 248 257 269 285 297 312 324 329 334 336 336 335 326 328 291 301 320 333 321 344 350 353 325 271 222 276 9 266 254 31 306 0 4 335 327 17 41 56 118 140 162
228 230 237 241 244 253 262 274 288 305 316 322 331 334 335 335 327 297 255 213 12 359 354 340 322 320 326 283 297 150 166 243 245 335 328 327 13 321 346 330 79 83 99 134 140
228 229 229 235 243 246 252 264 278 294 307 318 327 332 332 336 313 195 100 332 314 334 337 309 289 295 289 291 278 249 224 250 278 327 350 316 323 301 317 311 286 164 152 159 152
227 229 230 231 237 242 248 255 267 283 296 309 323 331 333 334 306 134 350 333 317 305 319 304 304 346 314 302 292 311 288 289 279 308 314 297 286 297 293 256 309 162 170 164 167
230 229 230 232 232 239 244 250 258 269 286 300 318 334 353 331 250 297 301 323 327 314 280 295 310 296 278 323 337 298 288 291 288 283 272 275 271 248 270 293 308 332 161 176 171
232 231 231 232 234 237 242 248 254 260 276 298 323 332 314 257 266 276 298 298 300 298 299 296 323 330 295 294 295 303 311 306 294 287 291 300 283 310 272 272 285 288 166 175 174
233 230 230 231 232 235 238 244 253 259 275 291 312 330 259 246 258 259 266 279 279 279 304 305 330 357 331 322 314 325 314 307 286 294 279 266 270 255 255 249 249 259 178 183 185
228 228 227 228 230 229 231 235 244 260 269 291 303 304 254 268 277 271 269 274 263 255 257 279 282 280 254 302 329 318 294 279 123 257 257 178 261 265 243 225 237 240 245 185 187
226 227 223 225 224 223 223 226 239 254 268 272 288 203 263 300 231 260 244 243 261 263 250 247 236 230 302 295 320 235 262 265 295 266 269 190 273 217 232 257 253 235 238 190 186
224 222 221 220 217 213 211 220 231 243 253 259 256 327 261 255 230 207 219 221 211 227 229 188 186 233 221 178 230 230 248 284 290 303 318 327 309 297 263 277 255 281 264 201 177
222 218 216 215 210 204 198 162 118 231 211 208 186 227 268 236 182 206 183 212 209 157 179 188 174 216 224 223 231 256 266 273 281 296 327 310 299 298 301 340 330 306 264 227 200
221 217 211 209 207 206 206 192 178 125 251 227 240 233 256 275 292 242 198 189 176 207 199 211 224 226 233 242 250 252 265 275 289 333 319 316 301 295 304 299 286 275 267 228 235
217 216 207 207 204 203 198 191 176 173 283 262 218 235 233 234 245 249 173 202 220 205 216 215 227 222 227 245 252 267 268 279 304 322 325 327 305 318 325 321 357 4 308 328 244
214 213 205 201 200 184 190 190 166 124 262 264 210 249 217 222 247 231 243 225 221 232 251 248 230 249 271 252 268 270 288 314 321 295 306 11 296 327 292 306 60 43 41 39 32
213 210 206 198 175 173 204 169 142 97 256 222 204 279 184 184 165 205 210 224 233 216 193 230 244 246 254 254 259 276 34 338 307 0 327 255 270 129 304 352 72 53 51 38 39
214 212 205 187 192 176 171 149 121 109 241 252 128 155 221 188 221 30 165 112 220 243 261 249 268 267 238 297 109 62 26 327 309 177 278 240 220 303 306 127 85 73 57 50 41
215 207 198 189 177 166 155 138 128 182 207 201 154 176 190 187 207 165 198 187 170 163 229 247 246 251 248 260 163 136 109 298 337 164 241 287 241 222 93 82 84 74 54 48 51
207 201 187 181 181 163 162 120 210 189 188 195 157 161 190 173 211 228 192 189 227 263 299 193 245 208 214 224 192 181 168 170 204 204 265 345 265 119 95 93 95 80 61 41 63
192 174 172 180 174 161 167 217 186 183 207 181 159 168 194 209 180 200 217 218 188 212 202 219 243 75 88 208 201 184 202 209 357 9 27 224 356 244 109 80 68 68 54 44 69
163 147 137 158 162 164 189 222 228 216 180 207 185 188 181 207 209 185 175 208 235 182 207 299 331 177 64 50 30 106 147 75 85 200 218 234 207 186 66 64 65 36 3 346 123
143 110 113 146 159 194 212 183 212 231 217 224 192 207 214 198 210 200 197 215 193 144 67 117 124 289 103 143 180 132 163 188 169 160 183 304 265 169 114 83 339 133 267 352 113
120 118 341 149 173 116 191 173 215 233 75 213 286 207 190 222 200 201 218 222 101 133 161 163 149 224 228 96 68 51 354 165 143 255 217 151 250 178 142 156 105 33 299 16 154
86 101 4 3 187 130 313 170 61 244 195 180 217 240 61 252 180 213 111 313 53 65 124 150 206 74 347 59 53 0 346 23 38 18 252 297 267 321 333 26 328 286 33 338 290
116 112 27 55 257 108 117 277 198 197 259 222 269 250 325 293 48 109 106 128 64 92 115 79 77 142 176 99 111 300 324 311 149 164 312 265 305 299 317 321 313 323 314 297 265
90 161 119 135 26 95 147 122 216 230 303 335 257 114 339 135 17 114 111 101 112 174 54 96 124 72 63 40 9 316 284 282 281 266 223 270 255 278 297 280 294 298 292 286 280
124 112 116 95 114 92 134 166 203 199 162 310 72 207 251 62 12 95 131 143 169 205 124 68 142 90 11 78 306 282 275 288 268 264 272 282 279 284 299 302 293 290 282 285 345
357 114 108 133 123 129 174 136 157 137 290 201 305 344 88 52 73 67 88 90 58 121 114 144 133 103 254 171 241 281 246 252 273 270 260 261 264 278 271 269 278 280 268 96 105